Weather History for Bentonville, AR

Change the Weather History Date:

Wednesday, April 18, 2012

  Actual Average Record
Temperature  
Mean Temperature 60 °F -  
Max Temperature 73 °F 70 °F 86 °F (1987)
Min Temperature 46 °F 47 °F 27 °F (1953)
Degree Days  
Heating Degree Days 6    
Growing Degree Days 10 (Base 50)    
Moisture  
Dew Point 44 °F    
Average Humidity 58    
Maximum Humidity 87    
Minimum Humidity 36    
Precipitation  
Precipitation 0.00 in - - ()
Sea Level Pressure  
Sea Level Pressure 30.11 in    
Wind  
Wind Speed 6 mph (SSE)    
Max Wind Speed 10 mph    
Max Gust Speed -    
Visibility 10 miles    
Events      
Averages and records for this station are not official NWS values.
T = Trace of Precipitation, MM = Missing Value Source: NWS Daily Summary

Daily Weather History Graph

Daily Weather History Graph

Search for Another Location

Airport:

Trip Planner

Search our weather history database for the weather conditions in past years. The results will help you decide how hot, cold, wet, or windy it might be!

Date:

Astronomy

Apr. 18, 2012 Rise Set
Actual Time 6:38 AM CDT 7:53 PM CDT
Civil Twilight 6:12 AM CDT 8:20 PM CDT
Nautical Twilight 5:40 AM CDT 8:52 PM CDT
Astronomical Twilight 5:06 AM CDT 9:26 PM CDT
Moon 5:00 AM CDT (4/18) 5:48 PM CDT (4/18)
Length of Visible Light 14h 08m
Length of Day
13h 15m
Waning Crescent, 6% of the Moon is Illuminated
Apr 18
Waning Crescent
Apr 21
New
Apr 29
First Quarter
May 5
Full
May 12
Last Quarter

Hourly Weather History & Observations

Time (CDT) Temp. Windchill Dew Point Humidity Pressure Visibility Wind Dir Wind Speed Gust Speed Precip Events Conditions
12:15 AM 53.6 °F - 46.4 °F 77% 30.20 in 10.0 mi SE 6.9 mph - N/A   Unknown
12:35 AM 53.6 °F - 46.4 °F 77% 30.20 in 10.0 mi SE 6.9 mph - N/A   Unknown
12:55 AM 51.8 °F - 46.4 °F 82% 30.20 in 10.0 mi SE 5.8 mph - N/A   Unknown
1:15 AM 51.8 °F - 46.4 °F 82% 30.20 in 10.0 mi SE 4.6 mph - N/A   Unknown
1:35 AM 51.8 °F - 44.6 °F 76% 30.20 in 10.0 mi SE 3.5 mph - N/A   Unknown
1:55 AM 51.8 °F - 44.6 °F 76% 30.19 in 10.0 mi SE 5.8 mph - N/A   Unknown
2:15 AM 51.8 °F - 44.6 °F 76% 30.18 in 10.0 mi SE 5.8 mph - N/A   Unknown
2:35 AM 51.8 °F - 44.6 °F 76% 30.18 in 10.0 mi SSE 4.6 mph - N/A   Unknown
2:55 AM 48.2 °F - 44.6 °F 87% 30.18 in 10.0 mi SE 4.6 mph - N/A   Unknown
3:15 AM 50.0 °F - 44.6 °F 82% 30.17 in 10.0 mi SE 5.8 mph - N/A   Unknown
3:35 AM 48.2 °F - 42.8 °F 82% 30.16 in 10.0 mi SE 4.6 mph - N/A   Unknown
3:55 AM 48.2 °F - 44.6 °F 87% 30.17 in 10.0 mi Calm Calm - N/A   Unknown
4:35 AM 48.2 °F - 42.8 °F 82% 30.17 in 10.0 mi Calm Calm - N/A   Unknown
4:55 AM 48.2 °F - 42.8 °F 82% 30.17 in 10.0 mi ESE 3.5 mph - N/A   Unknown
5:15 AM 48.2 °F - 42.8 °F 82% 30.16 in 10.0 mi ESE 5.8 mph - N/A   Unknown
5:35 AM 46.4 °F 45.2 °F 41.0 °F 81% 30.15 in 10.0 mi SE 3.5 mph - N/A   Unknown
5:55 AM 46.4 °F 45.2 °F 42.8 °F 87% 30.16 in 10.0 mi SSE 3.5 mph - N/A   Unknown
6:15 AM 46.4 °F 44.3 °F 42.8 °F 87% 30.16 in 10.0 mi ESE 4.6 mph - N/A   Unknown
6:35 AM 46.4 °F 44.3 °F 42.8 °F 87% 30.16 in 10.0 mi SE 4.6 mph - N/A   Unknown
7:15 AM 48.2 °F - 42.8 °F 82% 30.17 in 10.0 mi SE 5.8 mph - N/A   Unknown
7:35 AM 50.0 °F - 44.6 °F 82% 30.17 in 10.0 mi SE 5.8 mph - N/A   Unknown
7:55 AM 51.8 °F - 44.6 °F 76% 30.17 in 10.0 mi SE 4.6 mph - N/A   Unknown
8:15 AM 53.6 °F - 44.6 °F 72% 30.18 in 10.0 mi SSE 5.8 mph - N/A   Unknown
8:35 AM 55.4 °F - 44.6 °F 67% 30.18 in 10.0 mi SSE 4.6 mph - N/A   Unknown
8:55 AM 57.2 °F - 44.6 °F 63% 30.18 in 10.0 mi SSE 5.8 mph - N/A   Unknown
9:15 AM 57.2 °F - 42.8 °F 59% 30.17 in 10.0 mi South 5.8 mph - N/A   Unknown
9:35 AM 60.8 °F - 42.8 °F 52% 30.17 in 10.0 mi SSE 6.9 mph - N/A   Unknown
9:55 AM 62.6 °F - 41.0 °F 45% 30.18 in 10.0 mi SSW 5.8 mph - N/A   Unknown
10:15 AM 62.6 °F - 42.8 °F 48% 30.18 in 10.0 mi South 6.9 mph - N/A   Unknown
10:35 AM 64.4 °F - 39.2 °F 40% 30.17 in 10.0 mi South 6.9 mph - N/A   Unknown
10:55 AM 66.2 °F - 41.0 °F 40% 30.18 in 10.0 mi SSW 6.9 mph - N/A   Unknown
11:15 AM 66.2 °F - 42.8 °F 43% 30.18 in 10.0 mi SSW 6.9 mph - N/A   Unknown
11:35 AM 68.0 °F - 41.0 °F 37% 30.17 in 10.0 mi South 9.2 mph - N/A   Unknown
11:55 AM 69.8 °F - 42.8 °F 38% 30.17 in 10.0 mi South 5.8 mph - N/A   Unknown
12:15 PM 69.8 °F - 42.8 °F 38% 30.16 in 10.0 mi SSW 6.9 mph - N/A   Unknown
12:35 PM 69.8 °F - 44.6 °F 40% 30.15 in 10.0 mi South 8.1 mph - N/A   Unknown
12:55 PM 69.8 °F - 44.6 °F 40% 30.14 in 10.0 mi South 9.2 mph - N/A   Unknown
1:15 PM 71.6 °F - 44.6 °F 38% 30.13 in 10.0 mi SSW 9.2 mph - N/A   Unknown
1:35 PM 71.6 °F - 46.4 °F 41% 30.12 in 10.0 mi South 9.2 mph - N/A   Unknown
1:55 PM 71.6 °F - 46.4 °F 41% 30.11 in 10.0 mi SSW 10.4 mph - N/A   Unknown
2:15 PM 71.6 °F - 46.4 °F 41% 30.11 in 10.0 mi SSW 6.9 mph - N/A   Unknown
2:35 PM 71.6 °F - 46.4 °F 41% 30.10 in 10.0 mi South 8.1 mph - N/A   Unknown
2:55 PM 73.4 °F - 44.6 °F 36% 30.09 in 10.0 mi South 8.1 mph - N/A   Unknown
3:15 PM 71.6 °F - 46.4 °F 41% 30.08 in 10.0 mi SSW 8.1 mph - N/A   Unknown
3:35 PM 73.4 °F - 46.4 °F 38% 30.06 in 10.0 mi South 8.1 mph - N/A   Unknown
3:55 PM 73.4 °F - 44.6 °F 36% 30.05 in 10.0 mi SSW 9.2 mph - N/A   Unknown
4:15 PM 73.4 °F - 46.4 °F 38% 30.04 in 10.0 mi SSW 8.1 mph - N/A   Unknown
4:35 PM 73.4 °F - 46.4 °F 38% 30.03 in 10.0 mi SSW 9.2 mph - N/A   Unknown
4:55 PM 73.4 °F - 46.4 °F 38% 30.02 in 10.0 mi South 9.2 mph - N/A   Unknown
5:15 PM 73.4 °F - 44.6 °F 36% 30.02 in 10.0 mi SSE 9.2 mph - N/A   Unknown
5:35 PM 71.6 °F - 44.6 °F 38% 30.02 in 10.0 mi SSW 8.1 mph - N/A   Unknown
5:55 PM 73.4 °F - 44.6 °F 36% 30.02 in 10.0 mi South 8.1 mph - N/A   Unknown
6:15 PM 71.6 °F - 44.6 °F 38% 30.02 in 10.0 mi SSW 8.1 mph - N/A   Unknown
6:35 PM 71.6 °F - 46.4 °F 41% 30.02 in 10.0 mi SSW 8.1 mph - N/A   Unknown
7:15 PM 69.8 °F - 44.6 °F 40% 30.01 in 10.0 mi SSW 6.9 mph - N/A   Unknown
7:35 PM 66.2 °F - 44.6 °F 46% 30.01 in 10.0 mi SSW 5.8 mph - N/A   Unknown
7:55 PM 66.2 °F - 42.8 °F 43% 30.01 in 10.0 mi South 4.6 mph - N/A   Unknown
8:15 PM 64.4 °F - 42.8 °F 45% 30.01 in 10.0 mi South 4.6 mph - N/A   Unknown
8:35 PM 62.6 °F - 44.6 °F 52% 30.01 in 10.0 mi SSE 6.9 mph - N/A   Unknown
8:55 PM 60.8 °F - 44.6 °F 55% 30.01 in 10.0 mi SSE 5.8 mph - N/A   Unknown
9:15 PM 60.8 °F - 42.8 °F 52% 30.02 in 10.0 mi SSE 5.8 mph - N/A   Unknown
9:35 PM 57.2 °F - 44.6 °F 63% 30.02 in 10.0 mi SE 5.8 mph - N/A   Unknown
9:55 PM 57.2 °F - 44.6 °F 63% 30.02 in 10.0 mi SE 6.9 mph - N/A   Unknown
10:15 PM 55.4 °F - 44.6 °F 67% 30.02 in 10.0 mi SE 6.9 mph - N/A   Unknown
10:35 PM 55.4 °F - 44.6 °F 67% 30.01 in 10.0 mi SSE 8.1 mph - N/A   Unknown
10:55 PM 55.4 °F - 44.6 °F 67% 30.01 in 10.0 mi SE 8.1 mph - N/A   Unknown
11:15 PM 55.4 °F - 44.6 °F 67% 30.01 in 10.0 mi SSE 6.9 mph - N/A   Unknown
11:35 PM 55.4 °F - 44.6 °F 67% 30.00 in 10.0 mi SSE 6.9 mph - N/A   Unknown
11:55 PM 53.6 °F - 44.6 °F 72% 30.00 in 10.0 mi SSE 6.9 mph - N/A   Unknown